Weather Service Report


704 
ASUS41 KAKQ 242310
RWRAKQ

REGIONAL WEATHER ROUNDUP
NATIONAL WEATHER SERVICE WAKEFIELD VA
700 PM EDT THU APR 24 2014

Note: "fair" indicates few or no clouds below 12,000 feet with no
significant weather and/or obstructions to visibility. * = Denotes
station may not report precipitation (e.g., rain,snow,etc.),
thunder or fog.

VAZ042-051-052>054-056-250000-
NORTHERN VIRGINIA
  
CITY           SKY/WX    TMP DP  RH WIND       PRES   REMARKS
WASH NATIONAL  MOCLDY    63  24  22 N7        30.01F                  
DULLES         MOCLDY    61  22  22 CALM      30.01S                  
FORT BELVOIR   PTCLDY    64  22  19 W6        30.01S                  
QUANTICO       PTCLDY    63  23  21 CALM      30.02R                  
FREDERICKSBRG* PTCLDY    66  21  17 CALM      30.00S                  
STAFFORD*      PTCLDY    64  23  20 CALM      30.05S                  
WARRENTON      PTCLDY    64  35  34 CALM      30.00S                  
CULPEPER*      PTCLDY    66  19  16 CALM      30.01S                  
MANASSAS*      PTCLDY    64  18  16 CALM      30.01S                  
LEESBURG*      PTCLDY    63  30  29 CALM      30.01S                  
WINCHESTER     MOSUNNY   63  27  25 SE7       29.99S                  
$$

VAZ048-049-060>072-079>083-250000-
CENTRAL AND SOUTH CENTRAL VIRGINIA...AND NORTH CENTRAL NORTH CAROLINA
  
CITY           SKY/WX    TMP DP  RH WIND       PRES   REMARKS
RICHMOND       CLOUDY    65  20  17 N5        30.01S                  
CHESTERFIELD*  MOCLDY    64  27  24 CALM      30.02S                  
HANOVER        PTCLDY    65  22  19 CALM      30.02F                  
TAPPAHANNOCK*  PTCLDY    65   7  10 CALM      30.01S                  
CHARLOTTSVILLE MOSUNNY   64  23  21 S6        29.99S                  
ORANGE*        MOSUNNY   63  23  22 E5        30.01S                  
LOUISA*        PTCLDY    63  37  39 CALM      29.99S                  
FARMVILLE*     PTSUNNY   66  28  24 CALM      29.97S                  
SOUTH HILL*    CLEAR     68  34  28 S3          N/A                   
ROANOKE RAPIDS CLEAR     68  36  30 CALM      30.01S                  
RALEIGH        PTSUNNY   68  39  34 SW5       30.01S                  
$$

VAZ088>098-250000-
SOUTHEAST VIRGINIA
  
CITY           SKY/WX    TMP DP  RH WIND       PRES   REMARKS
NORFOLK        PTCLDY    58  39  49 NE6       30.01R                  
VIRGINIA BEACH MOCLDY    57  36  45 SE8       30.02R                  
NORFOLK NAVAL  MOCLDY    60  37  42 E7        30.03R                  
WEST POINT*      N/A    N/A N/A N/A MISG        N/A                   
NEWPORT NEWS   PTCLDY    67  28  23 N3        30.01S                  
LANGLEY AFB    PTCLDY    59  36  42 E5        30.02R                  
FORT EUSTIS    PTCLDY    62  37  39 NW5       30.00R                  
WILLIAMSBURG*  PTCLDY    66  32  28 NW3       30.02S                  
FRANKLIN*      PTCLDY    68  30  24 CALM      30.01S                  
WAKEFIELD      MOCLDY    65  37  35 CALM      30.01S                  
$$

VAZ020-022-025-037-045-250000-
WESTERN AND SOUTHWEST VIRGINIA
  
CITY           SKY/WX    TMP DP  RH WIND       PRES   REMARKS
STAUNTON*      MOSUNNY   64  24  21 CALM      30.00R                  
HOT SPRINGS VA MOSUNNY   55  21  26 S7        30.06S                  
LYNCHBURG      SUNNY     66  31  27 SW6       30.00S                  
DANVILLE       SUNNY     69  34  27 S3        29.99S                  
MARTINSVILLE   SUNNY     70  36  29 SW3       30.00S                  
ROANOKE        MOSUNNY   67  32  27 E10       29.99S                  
BLACKSBURG     SUNNY     68  39  34 S3        30.00S                  
DUBLIN*        SUNNY     66  37  33 SW5       29.98S                  
MARION*        PTSUNNY   67  35  30 E7        29.98S                  
HILLSVILLE*    MOSUNNY   61  30  31 SE8       30.03S                  
RICHLANDS*     MOCLDY    73  27  18 SW5       29.96S                  
WISE*          PTSUNNY   70  27  19 SW7       29.96F                  
ABINGDON*      PTSUNNY   75  17  11 W3        29.94F                  
$$

MDZ021>025-VAZ099-100-250000-
SOUTHERN MARYLAND AND THE DELMARVA PENINSULA
  
CITY           SKY/WX    TMP DP  RH WIND       PRES   REMARKS
PATUXENT RIVER MOCLDY    56  33  42 SE8       30.01S                  
BAY BRIDGE APT CLEAR     61  32  33 CALM      30.00S                  
LEONARDTOWN    PTCLDY    61  19  20 W7        30.02S                  
DOVER          CLEAR     60  20  21 W13       29.96R                  
GEORGETOWN     CLEAR     62  20  19 NW6       30.00R                  
EASTON         CLEAR     63  27  25 N12       30.04S                  
CAMBRIDGE      CLEAR     59  28  31 CALM      30.00S                  
SALISBURY      CLEAR     61  20  20 NW9       30.00R                  
OCEAN CITY     CLEAR     60  20  21 NW9       30.00R                  
WALLOPS ISLAND PTCLDY    59  29  31 W6        30.01R                  
ACCOMACK*      CLEAR     59  23  25 NW6       30.02R                  
$$

NCZ012>017-030>032-250000-
EASTERN NORTH CAROLINA
  
CITY           SKY/WX    TMP DP  RH WIND       PRES   REMARKS
ELIZABETH CITY PTCLDY    59  43  55 E13       30.02R                  
AHOSKIE*       PTCLDY    63  35  35 CALM      30.02S                  
EDENTON*       PTCLDY    65  34  32 SW3       30.02S                  
CURRITUCK*     PTCLDY    58  36  42 E5        30.03R                  
KILL DEVIL HLS PTCLDY    54  38  55 E6        30.03R                  
MANTEO         PTCLDY    56  41  56 S9        30.04R                  
CAPE HATTERAS  PTCLDY    57  43  59 SE7       30.04F                  
GOLDSBORO      PTCLDY    69  34  27 SW3       30.00S                  
WASHINGTON     PTCLDY    68  15  12 CALM      30.02S                  
GREENVILLE     PTCLDY    66  34  30 CALM      30.04R                  
NEW BERN       CLEAR     67  43  41 S10       30.03R                  
WILMINGTON     CLEAR     65  43  44 SE7       30.03S                  
$$

VAZ048-250000-
ELSEWHERE
  
CITY           SKY/WX    TMP DP  RH WIND       PRES   REMARKS
HARRISBURG PA  PTCLDY    65  18  16 NW7       29.98S                  
BALTIMORE      PTCLDY    62  20  19 NW7       30.00R                  
ANNAPOLIS      CLEAR     62  25  24 NW5       30.00S                  
ANDREWS AFB    PTCLDY    62  20  20 NW9       30.01S                  
WILMINGTON DE  CLEAR     61  18  18 NW12      29.99R                  
PHILADELPHIA   PTCLDY    63  10  12 NW15      29.97S                  
WILDWOOD NJ*   CLEAR     57  32  38 W9        29.99S                  
ATLANTIC CITY  CLEAR     60  18  19 NW13      29.95R                  
HENDERSON NC   SUNNY     67  30  25 S3        30.01S                  
GREENSBORO     PTSUNNY   68  36  30 SW8       29.99S                  
ROCKY MOUNT    PTCLDY    66  36  32 S6        30.02R                  
FAYETTEVILLE   SUNNY     72  38  29 SW7       30.00S                  
CHARLOTTE      MOSUNNY   71  40  32 SW7       29.99S                  
$$

VAZ100-250000-
MARINE
  
STATION/POSITION TIME  TEMP    WIND        PRES    WAVE   SWELL
                       AIR SEA DIR/SP/G            HT/PER HT/PER
                 (UTC) (F)     (DEG/KT/KT) (MB)    (FT/S) (FT/S)
44066 TX TWR #4  2300   48 46  280/ 16/ 19 1011.6R   4/ 5
CAPE MAY NJ      2300   57 57  330/ 10/ 13 1015.0R
LEWES DE         2300   57 51  330/ 11/ 13 1014.8R
15NM E FENWICK I 2300   51 47              1015.4R   2/ 5
OCEAN-CITY-INLET 2300   59 49  320/  5/  7 1015.4R
WACHAPREAGUE VA  2300   60 57  330/  5/ 10 1016.2R
THOMAS POINT MD  2300   62 54  320/  9/  9 1016.4S
GOOSES REEF MD   2300   56     170/  2/  2   N/A
COVE POINT MD    2300   57     210/  1/  2 1016.0S
SOLOMONS ISLAND  2300      57                N/A
BISHOPS HEAD MD  2300   57 58  240/  4/  4 1015.9S
PINEY POINT MD   2300          320/ 11/ 12   N/A
POTOMAC MD       2300   58     310/  8/ 10 1015.7R
CAMBRIDGE MD     2300   60 56  300/  2/  3 1015.6S
LEWISETTA VA     2300   61 58  340/  6/  8 1016.0S
RAPPAHANNOCK LGT 2300           40/  9/ 10 1016.7F
STINGRAY PT      2300   56     120/  6/  6 1016.5R
YORK RVR RNG VA  2300   56     130/  7/  8 1015.8R
YORKTOWN VA      2300   61 56  150/  5/  6 1016.0S
JAMESTOWN VA     2300   63     310/  6/  6   N/A
DOMINION TERM VA 2300   58      70/  7/ 10 1016.3S
KIPTOPEKE VA     2300      57  240/  1/  2   N/A
CHES BAY BRIDGE  2300   56 54   40/  8/  8 1016.3R
CAPE HENRY VA    2300   56      20/  7/  8   N/A
CHESAPEAKE LGHT  2200   56     360/  7/  7 1016.9F
WILLOUBY STN VA  2300   56      70/  7/  8 1015.5S
S CRANEY ISL VA  2300          270/  1/  2 1016.3F
CAPE HENRY BUOY  2300      49                N/A     2/ 6
1ST LANDING BUOY 2300      50                N/A     2/ 7   2/ 7
64NM E OF VA BCH 2300   50 50  320/  4/  6 1016.5F   4/ 6   3/ 6
DUCK PIER NC     2300   54 54  130/  9/ 10 1016.2R
44100 DUCK FRF   2300      50                N/A     4/ 8   2/11
44056 DUCK FRF   2300      54                N/A     3/ 7
OREGON INLET NC  2300   53 57  120/  5/  6 1017.2R
HATTERAS NC      2300   58 63  140/  6/  7 1017.3F
CAPE LOOKOUT NC  2200   58     130/  9/ 10 1017.2R
FRYING PAN SHLS  2300   67 69  110/ 12/ 14 1016.3F   4/ 9   3/ 9
$$

Return to Home page


Western Regional Climate Center, wrcc@dri.edu